Location: Salamanca
(40.9670°N, 5.6500°W)
Time: 18:36:32
(UTC+02:00)

ISS - Visible Passes

Search period start: 20 July 2017 00:00
Search period end: 30 July 2017 00:00
Orbit: 400 x 408 km, 51.6° (Epoch: 20 July)

Date Brightness Start Highest point End Pass type
(mag) Time Alt. Az. Time Alt. Az. Time Alt. Az.
20 Jul -0.9 02:52:51 17° N 02:52:51 17° N 02:54:51 10° NNE visible
20 Jul -0.6 04:28:27 10° NNW 04:30:05 13° N 04:31:43 10° NE visible
20 Jul -1.5 06:04:31 10° NW 06:07:23 27° NNE 06:10:14 10° E visible
21 Jul -0.8 02:01:57 14° NNE 02:01:57 14° NNE 02:02:43 10° NNE visible
21 Jul -0.5 03:35:54 10° NNW 03:37:27 13° N 03:39:00 10° NNE visible
21 Jul -1.0 05:12:24 10° NNW 05:14:53 20° NNE 05:17:22 10° ENE visible
22 Jul -0.5 02:43:16 11° NW 02:44:48 14° N 02:46:33 10° NNE visible
22 Jul -0.6 04:20:14 10° NNW 04:22:18 16° NNE 04:24:22 10° NE visible
22 Jul -2.9 05:56:09 10° NW 05:59:21 51° NNE 06:02:32 10° ESE visible
22 Jul -2.2 22:36:54 10° S 22:39:00 16° SE 22:41:05 10° E visible
23 Jul -3.2 00:11:59 10° WSW 00:15:10 55° NNW 00:18:22 10° NE visible
23 Jul -0.7 01:50:05 10° NW 01:52:11 16° NNW 01:54:17 10° NNE visible
23 Jul -0.5 03:27:58 10° NNW 03:29:40 13° N 03:31:23 10° NE visible
23 Jul -1.9 05:03:57 10° NW 05:06:55 31° NNE 05:09:52 10° E visible
23 Jul -4.0 23:19:35 10° SW 23:22:48 78° SE 23:26:03 10° NE visible
24 Jul -1.1 00:57:05 10° WNW 00:59:35 20° NNW 01:02:07 10° NNE visible
24 Jul -0.4 02:35:28 10° NNW 02:37:00 13° N 02:38:33 10° NNE visible
24 Jul -1.2 04:11:47 10° NNW 04:14:24 22° NNE 04:17:01 10° ENE visible
24 Jul -4.0 05:47:54 10° WNW 05:51:07 67° SW 05:54:21 10° SE visible
24 Jul -3.4 22:27:28 10° SSW 22:30:31 38° SE 22:33:34 10° ENE visible
25 Jul -1.7 00:04:10 10° W 00:07:03 28° NNW 00:09:56 10° NE visible
25 Jul -0.4 01:42:41 10° NW 01:44:20 13° N 01:45:58 10° NNE visible
25 Jul -0.8 03:19:36 10° NNW 03:21:48 17° NNE 03:24:01 10° ENE visible
25 Jul -3.5 04:55:32 10° NW 04:58:46 64° NNE 05:02:00 10° ESE visible
25 Jul -2.0 06:33:06 10° W 06:34:53 14° SW 06:36:41 10° SSW visible
25 Jul -2.7 23:11:26 10° WSW 23:14:33 45° NNW 23:17:42 10° NE visible
26 Jul -0.6 00:49:41 10° NW 00:51:39 15° NNW 00:53:38 10° NNE visible
26 Jul -0.6 02:27:20 10° NNW 02:29:04 14° N 02:29:04 14° N visible
26 Jul -3.8 22:18:54 10° SW 22:22:09 84° NNW 22:25:24 10° NE visible
26 Jul -0.9 23:56:38 10° WNW 23:59:00 18° NNW 00:01:23 10° NNE visible
27 Jul -0.5 01:34:53 10° NNW 01:36:27 13° N 01:37:40 11° NNE visible
27 Jul -1.4 23:03:38 10° W 23:06:24 25° NNW 23:09:10 10° NE visible
28 Jul -0.6 00:42:09 10° NNW 00:43:44 13° N 00:45:18 10° NNE visible
28 Jul -0.4 02:18:50 10° NNW 02:19:13 12° NNW 02:19:13 12° NNW visible
28 Jul -2.2 22:10:47 10° W 22:13:51 38° NNW 22:16:56 10° NE visible
28 Jul -0.7 23:49:10 10° NW 23:51:00 14° N 23:52:51 10° NNE visible
29 Jul -0.7 01:26:34 10° NNW 01:28:19 15° N 01:28:19 15° N visible
29 Jul -0.9 22:56:04 10° WNW 22:58:18 17° NNW 23:00:32 10° NNE visible
